Temperature
19 19 19 18 18 18 17 17 17 16 16 16 15 15 15 14 14 14 13 13 13 12 12 12 12 12 12 12 12 12 12 12 12 13 13 12 11 11 11 11 11 11 12
19 19 19 19 19 18 18 18 17 17 16 16 16 15 15 14 14 14 14 13 13 13 13 13 12 12 12 12 12 12 12 12 12 12 12 12 11 11 11 11 11 12 12
19 19 19 19 19 19 18 18 18 17 17 16 16 16 16 15 15 15 14 14 14 13 13 13 13 12 12 12 12 12 12 12 11 11 12 12 12 11 11 11 11 11 11
19 19 20 20 19 19 19 18 18 18 17 17 17 16 16 15 15 15 15 14 14 14 14 13 13 13 13 12 12 12 12 12 11 11 12 12 12 11 11 11 11 12 11
19 19 20 19 19 19 19 19 18 18 18 17 17 17 16 16 16 15 15 15 14 14 14 14 14 14 13 13 12 12 12 11 12 12 12 12 12 12 12 12 12 12 11
20 19 19 19 19 19 19 18 18 18 18 17 17 17 16 16 16 16 16 15 14 14 14 14 14 14 14 14 14 13 12 11 11 12 12 12 12 12 11 11 11 12 12
19 19 19 19 19 19 18 18 18 18 17 17 17 16 16 16 16 16 16 15 14 14 14 14 14 14 14 14 14 14 13 13 12 12 11 11 12 11 11 11 11 11 11
18 18 18 17 17 17 17 17 17 17 17 17 17 16 16 16 16 16 15 15 14 14 14 14 14 14 14 13 13 13 13 13 13 12 12 12 11 11 10 10 10 10 10
17 17 17 17 16 16 16 16 16 16 16 16 16 16 16 16 15 15 15 14 14 14 14 13 13 13 14 13 13 12 12 12 12 12 12 12 12 11 11 10 10 10 11
16 16 16 16 16 15 15 15 15 15 15 15 14 14 14 14 14 14 14 13 13 13 13 13 13 13 13 13 13 12 12 12 12 12 11 11 12 11 11 10 10 10 11
14 14 14 14 14 14 14 14 14 14 14 13 13 13 13 13 13 13 13 13 12 12 12 12 13 12 12 12 12 12 12 12 11 11 11 11 11 11 10 10 10 10 10
13 13 13 13 13 13 13 13 12 12 12 12 12 12 12 12 12 12 12 12 11 11 11 11 12 12 12 12 12 12 12 11 11 11 11 11 11 11 11 10 10 10 10
12 12 12 12 12 11 11 11 11 11 11 11 11 11 11 11 11 10 10 10 10 10 10 10 10 11 11 11 11 11 11 11 10 10 11 11 11 11 11 11 10 9 9
11 11 11 10 11 10 10 10 10 10 10 10 10 10 10 10 10 10 9 9 9 9 9 9 9 10 10 10 10 10 10 10 10 10 10 11 11 11 11 11 10 10 9
10 10 10 10 10 10 10 10 9 9 9 9 9 8 9 9 9 8 8 8 8 8 8 8 8 9 9 10 10 10 10 10 10 10 10 10 10 10 11 10 10 10 10
10 10 10 10 10 10 10 10 9 9 8 8 8 8 7 7 7 7 7 7 7 7 7 7 8 8 9 9 10 10 10 10 9 9 9 10 10 10 10 10 10 10 10
9 9 9 9 9 9 9 9 9 9 8 8 7 7 6 6 6 6 6 6 7 7 7 7 8 8 8 9 9 9 9 9 9 9 9 9 9 9 10 9 9 9 9
9 9 9 9 9 8 8 8 8 8 8 7 7 6 6 6 5 5 5 5 6 6 7 7 7 7 8 8 8 8 9 9 9 9 9 9 9 9 9 9 9 9 9
8 8 8 8 8 8 8 7 7 7 7 6 6 6 5 5 5 5 5 5 5 6 6 6 6 7 7 7 7 7 7 8 8 8 8 8 8 8 8 9 9 9 9
8 8 7 7 7 7 7 6 6 6 6 5 5 5 5 4 4 4 4 4 4 5 5 5 5 6 6 6 6 7 7 7 7 8 8 8 8 8 8 8 8 8 8
8 7 7 7 6 6 5 5 5 5 4 4 4 4 3 3 4 4 4 4 4 4 4 4 5 5 5 6 6 6 6 7 7 7 7 7 8 8 8 8 8 8 8
6 6 6 5 5 5 4 4 4 4 4 3 3 3 3 3 3 3 3 3 3 3 3 4 4 5 5 5 5 6 6 6 6 6 7 7 7 7 7 7 7 8 8
5 5 5 4 4 4 3 3 3 3 3 3 2 2 2 2 2 2 3 3 3 3 3 4 4 4 4 4 5 5 5 6 6 6 6 7 7 7 7 7 7 7 7
4 4 4 3 3 3 3 3 2 2 2 2 2 2 2 2 2 2 2 2 2 3 3 3 4 4 4 4 4 5 5 5 6 6 6 6 6 7 7 7 7 7 7
3 3 3 2 2 2 2 2 2 1 1 1 1 1 1 1 1 2 2 2 2 2 3 3 3 3 4 4 4 5 5 5 5 6 6 6 6 6 6 6 6 7 6
3 2 2 2 1 1 1 1 1 1 1 1 1 1 1 1 1 1 1 1 2 2 2 3 3 3 3 4 4 4 5 5 5 5 6 6 6 6 6 6 6 6 6
Wind_Speed
15 14 13 13 13 12 12 12 11 10 10 11 11 11 11 11 11 10 11 9 10 9 9 9 9 9 7 7 7 7 7 8 9 9 8 6 6 9 9 9 11 11 11
15 14 14 13 13 13 13 13 12 12 12 12 12 12 12 12 11 12 12 11 11 11 11 10 10 9 10 9 8 9 9 8 10 11 10 9 9 9 9 10 11 12 12
15 15 14 14 14 14 14 13 13 13 13 12 12 13 12 12 12 13 13 12 12 12 12 12 12 11 11 10 10 10 9 9 10 11 11 9 9 9 9 10 11 10 13
14 15 15 15 15 14 14 13 14 13 13 13 13 13 13 13 13 13 13 13 13 13 13 13 13 13 13 13 11 12 11 11 11 11 12 10 9 9 9 10 10 9 10
13 14 14 13 12 12 12 13 13 13 14 14 14 14 14 14 14 15 14 15 14 14 14 15 15 15 14 13 12 12 12 12 12 12 12 11 10 9 9 9 10 9 10
10 11 10 10 10 11 11 11 12 12 13 13 14 15 15 14 13 14 15 15 14 15 15 15 15 16 17 18 17 16 15 15 14 13 13 13 12 11 10 10 10 11 11
6 5 6 6 7 8 8 9 10 11 12 13 14 15 16 16 14 15 17 17 16 16 16 15 15 15 17 17 19 22 21 22 20 18 17 16 14 12 12 13 12 12 12
3 2 2 2 3 4 5 7 8 8 9 11 12 14 15 15 14 16 16 18 18 18 18 18 18 17 17 17 17 18 19 19 20 20 20 19 17 14 13 13 14 13 14
6 5 4 2 1 1 2 4 5 6 8 9 10 12 13 14 12 14 14 14 16 19 19 19 19 19 18 17 18 19 19 18 18 20 20 19 17 14 12 12 13 13 14
8 7 6 5 4 2 1 2 2 4 6 8 9 10 11 12 9 9 12 12 15 16 16 18 19 21 20 17 19 20 21 20 18 17 18 20 21 20 19 18 17 16 15
8 8 7 6 5 4 4 3 3 4 5 6 7 7 8 9 9 8 10 10 12 14 15 15 15 16 20 20 19 20 21 18 17 17 17 17 17 17 18 19 18 17 17
8 8 8 8 7 6 5 5 5 5 5 6 6 7 7 7 7 6 8 11 13 13 14 15 14 11 12 16 17 19 20 17 16 17 17 17 17 16 16 17 18 19 18
8 8 7 7 6 6 6 5 5 5 6 7 7 8 8 7 7 7 9 11 13 12 13 16 17 17 14 14 18 20 18 16 17 18 19 18 17 16 15 13 16 16 18
7 6 5 5 6 6 6 6 7 7 7 8 9 10 10 10 9 8 9 9 11 12 13 14 16 19 18 17 16 16 16 17 17 18 18 18 16 15 15 15 15 14 16
6 6 6 6 6 6 6 6 7 7 7 9 10 11 12 12 11 12 12 13 14 14 14 15 16 16 15 15 15 16 16 16 17 18 17 17 16 16 16 15 14 15 16
5 6 7 7 7 8 8 8 4 7 7 10 12 12 12 12 14 15 16 16 17 16 14 16 17 17 17 17 17 16 16 16 16 16 17 17 16 16 16 15 15 15 16
6 7 7 8 9 9 10 10 11 9 8 11 12 13 13 15 16 17 18 18 19 15 14 16 17 17 17 17 17 17 17 16 15 15 16 16 15 16 15 15 15 15 16
7 6 7 8 9 10 10 11 11 12 13 12 9 8 9 12 14 16 17 16 16 13 14 15 15 15 16 16 16 16 16 15 14 15 16 15 15 15 15 15 15 16 16
8 7 8 9 10 10 10 11 11 12 12 12 13 12 10 12 14 15 14 13 14 14 14 14 14 14 14 15 15 14 15 14 15 14 14 14 14 14 15 16 16 16 16
6 4 7 10 10 10 10 11 11 12 12 12 12 13 14 15 14 14 13 13 13 14 14 14 14 14 14 13 13 14 14 14 14 14 13 13 13 14 16 17 16 15 15
9 8 7 9 9 10 11 11 11 11 12 12 13 13 14 14 14 14 13 13 13 13 14 14 14 14 13 12 12 13 15 13 12 12 12 12 12 13 13 13 14 15 14
9 9 9 9 9 9 11 11 11 11 12 13 13 13 13 12 12 12 13 13 13 13 13 13 12 12 12 12 11 11 11 11 11 10 11 11 11 11 12 12 12 12 12
8 9 9 9 9 9 10 10 11 11 12 12 13 13 13 12 13 13 13 13 13 13 13 12 12 11 11 10 9 9 9 9 9 9 9 9 9 10 10 11 12 13 13
8 9 10 10 10 10 11 11 11 11 12 12 12 12 12 13 13 14 14 13 13 13 12 11 11 13 15 11 8 8 7 8 8 7 9 9 9 9 9 10 11 13 13
8 9 9 9 10 10 11 11 11 11 12 12 12 12 13 13 13 13 13 13 14 13 14 13 11 12 14 14 11 9 9 9 8 9 8 8 9 10 9 10 10 11 12
8 9 9 9 9 9 10 10 11 11 11 12 12 12 12 13 13 13 13 12 13 13 13 12 13 14 15 12 12 11 9 9 9 10 8 8 9 9 9 9 12 11 12
Wind_Direction
208 209 213 212 212 214 217 217 213 212 206 208 210 213 217 219 219 222 236 231 232 237 237 237 238 253 254 251 246 250 254 258 269 277 277 271 265 275 285 280 274 271 260
209 210 213 215 214 215 218 218 213 211 210 211 213 216 220 222 221 224 231 233 233 236 237 238 240 237 237 249 252 251 253 258 264 275 280 277 263 261 265 270 273 270 273
210 212 215 216 216 217 219 216 213 212 213 215 215 219 223 225 225 227 231 235 237 238 239 239 239 240 239 241 242 249 251 249 250 264 271 273 271 264 266 264 265 264 269
214 215 217 219 218 218 217 214 212 211 213 216 218 222 225 227 229 230 231 234 238 240 241 242 242 239 239 241 241 244 250 256 254 257 265 267 263 259 258 265 268 255 257
218 220 222 223 221 220 217 216 214 214 217 219 221 224 227 230 231 230 232 234 236 240 240 241 241 240 240 240 245 244 242 246 253 255 259 263 262 260 261 264 269 273 265
218 224 226 223 219 218 219 218 216 218 223 224 226 229 231 234 225 221 232 241 240 240 243 242 242 235 233 229 239 248 252 249 252 257 260 261 263 263 262 266 271 271 271
203 217 217 216 217 218 220 221 223 224 226 230 234 236 239 240 228 218 221 239 247 246 245 245 246 243 231 235 229 229 238 242 246 251 258 261 263 257 259 259 256 263 271
125 135 157 200 215 217 225 231 235 235 235 236 240 242 245 245 226 220 220 235 248 250 248 246 246 249 243 238 240 238 237 236 232 235 245 253 256 260 255 254 265 265 263
82 77 73 80 106 197 235 250 250 250 249 249 248 250 251 253 234 223 222 245 247 249 250 249 248 249 244 233 240 245 247 247 240 231 234 242 249 252 251 252 253 255 260
65 62 59 58 54 40 3 319 293 274 268 267 264 263 264 266 255 229 222 250 256 258 255 251 246 242 246 228 237 244 247 248 250 242 229 237 244 243 233 237 245 250 257
65 65 61 53 48 37 23 6 337 313 300 290 288 281 274 272 267 241 224 250 262 266 265 262 259 235 231 231 231 242 248 252 253 251 247 241 236 235 232 226 230 240 250
61 57 52 43 31 32 24 7 350 329 307 296 294 291 284 278 273 271 242 242 263 273 273 272 274 282 250 238 235 242 247 250 252 252 249 246 243 238 233 230 226 230 239
59 52 44 37 29 20 7 353 337 327 317 315 311 306 301 299 285 242 246 250 251 262 274 277 283 285 276 258 241 237 239 244 245 246 246 246 244 243 241 234 232 232 237
51 42 31 20 11 9 346 340 335 330 327 323 317 312 309 305 302 310 306 294 275 269 276 278 266 259 255 257 258 245 241 241 239 242 245 246 245 242 238 236 234 232 235
34 20 8 4 1 343 336 331 323 326 329 313 313 311 310 307 322 336 314 302 301 301 305 291 282 277 270 262 256 252 246 240 237 241 244 245 243 240 240 235 233 236 240
9 2 353 347 345 333 328 322 290 278 266 254 258 275 296 297 305 304 298 290 285 285 288 280 276 273 271 268 264 260 254 248 244 241 240 241 242 241 241 238 233 234 240
352 347 339 336 332 327 324 320 318 306 268 253 253 254 263 283 289 290 288 287 281 273 273 274 274 274 273 271 268 265 261 256 250 246 244 242 241 242 243 241 237 237 240
329 336 327 325 323 320 319 316 314 315 316 314 301 283 281 281 283 282 282 289 289 276 276 278 280 280 279 276 273 270 268 266 256 250 245 243 241 240 240 241 239 238 238
325 330 332 323 317 317 318 316 315 315 313 314 316 315 313 306 292 286 288 295 298 297 292 289 287 285 283 279 277 276 272 267 261 254 247 243 241 240 240 240 240 238 238
317 325 316 315 316 321 321 318 317 317 316 317 317 319 326 322 316 314 312 309 303 301 299 295 291 288 287 284 279 275 271 267 262 255 249 244 241 240 240 240 240 238 236
324 325 314 312 323 324 323 322 321 320 319 319 318 323 327 315 310 311 312 311 308 305 304 301 296 291 288 284 280 276 272 268 266 260 253 246 243 241 239 238 239 240 241
324 324 328 329 327 328 328 323 322 320 320 320 320 321 319 314 316 316 314 312 310 307 305 302 300 298 294 291 287 281 277 272 269 267 259 249 243 242 241 240 241 242 243
326 328 329 329 327 328 321 324 325 325 325 323 322 322 323 322 319 317 315 314 314 312 312 310 305 304 303 300 297 292 284 279 278 276 269 259 249 244 243 242 243 245 243
335 334 333 331 331 331 329 329 329 329 327 325 325 325 324 323 321 320 321 319 318 317 317 316 315 314 312 308 302 301 303 311 309 300 291 275 262 256 249 245 244 246 247
343 341 337 336 336 334 333 333 333 332 330 329 328 327 326 325 324 323 323 322 322 321 321 319 316 317 317 316 315 316 328 331 325 315 299 286 273 264 259 256 253 253 251
349 348 345 344 342 340 337 335 334 334 332 331 330 329 328 328 327 326 327 326 325 323 320 318 318 320 319 317 320 326 325 321 317 311 299 287 279 269 264 261 260 256 258
Height
1535 1538 1541 1543 1545 1546 1547 1548 1549 1550 1551 1551 1552 1553 1553 1554 1554 1555 1555 1556 1555 1556 1555 1555 1554 1554 1555 1555 1555 1555 1554 1554 1553 1552 1552 1550 1547 1546 1546 1545 1544 1543 1543
1532 1535 1537 1539 1540 1542 1543 1544 1545 1546 1547 1548 1548 1549 1550 1550 1551 1551 1552 1552 1552 1552 1552 1552 1551 1551 1550 1551 1551 1551 1550 1550 1549 1548 1547 1546 1545 1542 1541 1539 1540 1540 1539
1529 1531 1532 1534 1536 1537 1539 1540 1541 1542 1543 1544 1545 1545 1546 1547 1547 1547 1548 1548 1548 1548 1548 1548 1547 1547 1546 1547 1546 1546 1546 1546 1544 1543 1542 1542 1540 1539 1537 1536 1535 1533 1533
1524 1526 1528 1529 1531 1533 1534 1535 1537 1538 1538 1539 1540 1541 1542 1542 1543 1543 1543 1543 1544 1543 1543 1543 1542 1542 1542 1541 1541 1541 1541 1541 1540 1538 1537 1537 1536 1534 1533 1532 1531 1530 1528
1520 1521 1523 1524 1526 1528 1529 1531 1532 1533 1534 1535 1535 1536 1537 1537 1538 1538 1538 1538 1538 1538 1538 1537 1537 1536 1536 1536 1536 1536 1536 1535 1535 1534 1532 1532 1531 1530 1529 1528 1527 1525 1524
1514 1516 1518 1519 1521 1522 1524 1526 1527 1528 1529 1530 1530 1531 1531 1532 1532 1532 1533 1533 1532 1532 1531 1531 1530 1529 1529 1529 1528 1529 1529 1528 1528 1528 1527 1526 1525 1524 1523 1522 1522 1520 1519
1509 1511 1513 1514 1515 1517 1519 1520 1521 1522 1523 1524 1525 1525 1525 1525 1526 1526 1526 1526 1525 1524 1524 1523 1523 1523 1522 1521 1520 1520 1520 1519 1519 1519 1519 1518 1518 1518 1517 1516 1515 1514 1513
1505 1507 1508 1510 1511 1512 1513 1515 1515 1516 1517 1517 1518 1518 1518 1518 1518 1519 1519 1518 1517 1516 1515 1515 1514 1514 1514 1514 1513 1512 1511 1510 1510 1509 1509 1509 1510 1510 1509 1509 1508 1507 1505
1503 1504 1506 1507 1508 1508 1509 1509 1510 1510 1510 1510 1510 1510 1510 1510 1510 1510 1510 1508 1507 1506 1506 1506 1505 1505 1505 1505 1504 1503 1502 1502 1501 1500 1500 1500 1500 1501 1501 1502 1501 1501 1499
1502 1503 1504 1504 1504 1505 1505 1505 1505 1504 1504 1504 1504 1503 1502 1502 1502 1501 1501 1500 1498 1498 1497 1496 1495 1495 1495 1495 1494 1493 1492 1492 1493 1493 1491 1490 1490 1490 1491 1491 1492 1492 1491
1503 1503 1503 1502 1502 1502 1501 1501 1501 1500 1499 1499 1498 1497 1496 1494 1494 1493 1492 1491 1489 1488 1488 1487 1487 1486 1485 1484 1484 1483 1482 1483 1483 1483 1482 1481 1480 1480 1480 1480 1480 1481 1482
1504 1503 1502 1501 1501 1500 1499 1498 1497 1496 1496 1494 1493 1491 1490 1489 1487 1485 1484 1483 1481 1479 1477 1477 1477 1476 1474 1473 1472 1471 1472 1472 1472 1472 1472 1471 1471 1471 1471 1471 1471 1470 1471
1503 1503 1502 1501 1500 1498 1497 1496 1495 1494 1493 1491 1489 1488 1486 1484 1482 1479 1477 1475 1473 1470 1468 1467 1465 1464 1462 1461 1460 1460 1460 1460 1459 1459 1459 1459 1460 1461 1462 1462 1461 1461 1461
1504 1503 1502 1500 1499 1497 1496 1495 1493 1492 1490 1487 1485 1483 1481 1479 1477 1474 1471 1469 1466 1463 1460 1457 1455 1452 1451 1449 1448 1447 1446 1446 1446 1446 1447 1448 1449 1450 1450 1451 1452 1452 1452
1504 1503 1501 1500 1498 1496 1494 1492 1490 1488 1485 1483 1480 1478 1475 1472 1470 1467 1464 1461 1458 1456 1451 1448 1446 1444 1441 1439 1438 1436 1435 1434 1434 1434 1435 1436 1437 1438 1439 1440 1440 1441 1442
1503 1502 1500 1498 1496 1494 1492 1489 1486 1483 1479 1476 1473 1471 1467 1465 1462 1458 1455 1452 1449 1446 1442 1438 1436 1434 1432 1429 1428 1426 1425 1424 1423 1423 1423 1424 1425 1426 1427 1429 1429 1430 1431
1502 1500 1498 1496 1494 1491 1488 1485 1481 1478 1475 1471 1468 1464 1461 1457 1454 1450 1447 1443 1439 1436 1433 1429 1427 1424 1422 1419 1417 1415 1414 1413 1413 1412 1412 1413 1414 1415 1417 1418 1419 1420 1421
1500 1498 1496 1493 1491 1487 1484 1481 1477 1473 1470 1466 1463 1459 1455 1451 1447 1443 1439 1434 1430 1428 1424 1421 1418 1415 1412 1410 1407 1405 1404 1403 1402 1402 1402 1402 1403 1404 1406 1407 1408 1410 1411
1498 1495 1492 1489 1487 1483 1480 1477 1473 1469 1465 1461 1457 1454 1450 1445 1440 1437 1432 1428 1424 1420 1416 1413 1409 1406 1403 1400 1398 1396 1394 1393 1392 1392 1391 1392 1393 1395 1395 1397 1398 1400 1401
1494 1491 1488 1485 1482 1479 1476 1472 1469 1465 1461 1456 1453 1449 1444 1439 1435 1430 1426 1422 1417 1413 1408 1404 1401 1398 1395 1392 1389 1387 1385 1384 1383 1382 1382 1383 1384 1385 1386 1387 1389 1390 1391
1491 1488 1484 1481 1478 1475 1471 1468 1464 1460 1456 1452 1448 1444 1439 1434 1429 1425 1420 1415 1411 1406 1401 1397 1393 1390 1387 1384 1381 1379 1377 1376 1375 1374 1374 1374 1375 1376 1377 1378 1380 1381 1382
1487 1484 1481 1477 1474 1471 1467 1463 1460 1456 1452 1448 1443 1439 1434 1429 1424 1419 1414 1409 1405 1400 1395 1391 1387 1383 1380 1377 1374 1372 1370 1368 1367 1366 1366 1366 1367 1368 1369 1370 1372 1373 1374
1483 1480 1477 1473 1470 1466 1463 1460 1456 1452 1448 1443 1439 1434 1429 1424 1419 1414 1409 1404 1399 1394 1389 1385 1381 1377 1374 1371 1368 1366 1364 1362 1362 1361 1360 1360 1361 1361 1362 1363 1364 1365 1366
1479 1476 1473 1470 1467 1463 1459 1456 1452 1448 1444 1439 1435 1430 1425 1420 1415 1410 1405 1400 1394 1389 1384 1380 1376 1373 1369 1366 1363 1361 1360 1358 1357 1357 1356 1356 1356 1356 1356 1357 1358 1359 1360
1476 1473 1470 1466 1463 1460 1456 1452 1449 1445 1440 1436 1432 1427 1422 1417 1411 1406 1401 1395 1390 1385 1380 1376 1372 1368 1365 1362 1359 1357 1355 1354 1353 1353 1352 1352 1351 1351 1351 1351 1352 1353 1353
1473 1470 1467 1464 1461 1457 1454 1450 1446 1442 1438 1434 1429 1424 1419 1414 1409 1403 1398 1392 1387 1382 1377 1373 1369 1365 1361 1358 1355 1353 1352 1350 1349 1348 1347 1347 1347 1346 1346 1346 1346 1346 1346